Regional Weather Roundup
Issued by NWS Newport/Morehead, NC

Current Version | Previous Version | Text Only | Print | Product List | Glossary On
Versions: 1 2 3 4 5 6 7 8 9 10 11 12 13 14 15 16 17 18 19 20 21 22 23 24 25 26 27 28 29 30 31 32 33 34 35 36 37 38 39 40 41 42 43 44 45 46 47 48 49 50
000
ASUS42 KMHX 250310
RWRMHX
WEATHER ROUNDUP FOR EASTERN NORTH CAROLINA
NATIONAL WEATHER SERVICE NEWPORT/MOREHEAD CITY NC
1000 PM EST WED DEC 24 2014

NOTE: "FAIR" INDICATES FEW OR NO CLOUDS BELOW 12,000 FEET
WITH NO SIGNIFICANT WEATHER AND/OR OBSTRUCTIONS TO VISIBILITY

NCZ015>017-031-032-045>047-102-103-250400-
NORTH COAST

CITY           SKY/WX    TMP DP  RH WIND       PRES   REMARKS
EDENTON        CLOUDY    63  60  92 S13       29.71F
ELIZABETH CITY CLOUDY    70  61  73 S14G21    29.70F
KITTY HAWK     MOCLDY    64  61  92 S7        29.75F
MANTEO         MOCLDY    61  57  88 S14       29.77F

$$

NCZ045>047-081-094-103-104-250400-
CENTRAL COAST

CITY           SKY/WX    TMP DP  RH WIND       PRES   REMARKS
FRISCO         LGT RAIN  63  63 100 SW7G18    29.80F FOG
SWANQUARTER      N/A     59 N/A N/A S9G16     29.74S

$$

NCZ095-097-098-100-101-250400-
SOUTHERN COAST

CITY           SKY/WX    TMP DP  RH WIND       PRES   REMARKS
BEAUFORT       MOCLDY    66  65  96 S12       29.77F FOG
CEDAR ISLAND     N/A     64 N/A N/A SE5G10    29.79F
JACKSONVILLE   CLOUDY    64  62  93 S7        29.75S
PINEY ISLAND   MOCLDY    67  64  90 S8        29.77F
WILMINGTON     CLOUDY    67  64  90 S10       29.76S


$$

NCZ011>013-027>030-043-044-078>080-089-090>093-098-250400-
COASTAL PLAIN

CITY           SKY/WX    TMP DP  RH WIND       PRES   REMARKS
AHOSKIE        CLOUDY    66  61  85 S9        29.68R
CLINTON        MOCLDY    66  64  93 S6        29.72S
ELIZABETHTOWN  MOCLDY    66  65  95 S7        29.72F
GOLDSBORO      MOCLDY    67  67  98 S9        29.69R
GREENVILLE     CLOUDY    66  63  88 S9        29.74R
HAVELOCK       CLOUDY    67  64  90 S8        29.76F
KENANSVILLE    CLOUDY    65  62  89 S3        29.74R
KINSTON        CLOUDY    67  62  85 S12       29.73R
NEW BERN       LGT RAIN  68  63  84 S12       29.75F
RICHLANDS      CLOUDY    66  61  82 S13       29.75R
ROCKY MOUNT    CLOUDY    66  62  87 S8        29.68S
WASHINGTON     CLOUDY    66  62  88 S7        29.72S
WHITEVILLE     CLOUDY    66  63  90 S8        29.72F

$$

AMZ130-135-150-152-154-156-158-170-250-252-270-ANZ085-086-088-633-658-670-250400-
MARINE OBSERVATIONS

STATION/POSITION TIME  TEMP    WIND        PRES    WAVE   SWELL
                       AIR SEA DIR/SP/G            HT/PER HT/PER
                 (UTC) (F)     (DEG/KT/KT) (MB)    (FT/S) (FT/S)
CHESAPEAKE LIGHT 0200   57     190/ 29/ 30 1005.7
64 E VA BEACH    0300   59 53  190/ 17/ 19 1007.0    7/ 8
DUCK             0300   66 50  180/ 20/ 25 1005.9
2 E DUCK         0300      50                N/A     4/ 8
10 NE DUCK       0300      50                N/A     5/ 7   2/11
OREGON INLET     0300   58 52  180/ 12/ 14 1008.6
13E OREGON INLT  0300      51                N/A     7/ 8   2/11
HATTERAS CG      0300   64 56  200/  3/  7 1009.2
DIAMOND BUOY     0300   75                 1008.8    9/ 8
17 S OCRACOKE    NOT AVBL
CAPE LOOKOUT     0200   62     190/  7/  8 1009.0
BEAUFORT LAB     0300   63 55  170/ 10/ 12 1007.2
30 SE NEW RIVER  0200   67 60  200/ 10/ 14 1009.0
5 SE WRIGHTSVLE  NOT AVBL
225 S CAPE HAT   0246   74 71  190/ 17/ 21 1014.5    7/ 7   2/10
41 SE CHARLESTON 0300   72 74  210/ 16/ 17 1007.9    7/ 8   5/ 8

$$



USA.gov is the U.S. government's official web portal to all federal, state and local government web resources and services.